Cordova, AK

1:46 AM AKDT on June 25, 2017 (GMT -0800)
Cordova-Smith

Weather History for PACV - February, 2013

Change the Weather History Date:

Tuesday, February 26, 2013

  Actual Average Record
Temperature  
Mean Temperature 40 °F -  
Max Temperature 43 °F 36 °F 46 °F (1984)
Min Temperature 36 °F 21 °F -10 °F (1954)
Degree Days  
Heating Degree Days 26    
Moisture  
Dew Point 23 °F    
Average Humidity 51    
Maximum Humidity 68    
Minimum Humidity 38    
Precipitation  
Precipitation 0.00 in - - ()
Snow  
Snow 0.00 in - - ()
Snow Depth 6.00 in    
Sea Level Pressure  
Sea Level Pressure 29.44 in    
Wind  
Wind Speed 10 mph (ENE)    
Max Wind Speed 16 mph    
Max Gust Speed 31 mph    
Visibility 10 miles    
Events Rain , Snow    
Averages and records for this station are not official NWS values.
T = Trace of Precipitation, MM = Missing Value Source: NWS Daily Summary

Daily Weather History Graph

Daily Weather History Graph

Search for Another Location

Airport or City:

Trip Planner

Search our weather history database for the weather conditions in past years. The results will help you decide how hot, cold, wet, or windy it might be!

Date:

Astronomy

Feb. 26, 2013 Rise Set
Actual Time 7:48 AM AKST 6:01 PM AKST
Civil Twilight 7:05 AM AKST 6:44 PM AKST
Nautical Twilight 6:17 AM AKST 7:33 PM AKST
Astronomical Twilight 5:27 AM AKST 8:23 PM AKST
Moon 8:05 PM AKST (2/26) 7:28 AM AKST (2/26)
Length of Visible Light 11h 38m
Length of Day
10h 13m
Full, 99% of the Moon is Illuminated
Feb 26
Full
Mar 4
Last Quarter
Mar 11
New
Mar 19
First Quarter
Mar 27
Full

Hourly Weather History & Observations

Time (AKST) Temp. Windchill Dew Point Humidity Pressure Visibility Wind Dir Wind Speed Gust Speed Precip Events Conditions
12:53 AM 41.0 °F 33.9 °F 19.0 °F 41% 29.58 in 10.0 mi East 12.7 mph 18.4 mph N/A   Overcast
1:53 AM 41.0 °F 34.3 °F 19.9 °F 43% 29.56 in 10.0 mi ENE 11.5 mph 19.6 mph N/A   Overcast
3:53 AM 41.0 °F 34.3 °F 19.9 °F 43% 29.51 in 10.0 mi ENE 11.5 mph - N/A   Overcast
4:53 AM 42.1 °F 36.1 °F 18.0 °F 38% 29.49 in 10.0 mi ENE 10.4 mph 18.4 mph N/A   Overcast
5:53 AM 42.1 °F 36.6 °F 19.0 °F 40% 29.49 in 10.0 mi ENE 9.2 mph 20.7 mph N/A   Overcast
6:53 AM 41.0 °F 36.4 °F 19.9 °F 43% 29.49 in 10.0 mi East 6.9 mph - N/A   Overcast
7:53 AM 37.9 °F 31.5 °F 21.9 °F 53% 29.48 in 10.0 mi ENE 9.2 mph - N/A   Overcast
8:53 AM 39.9 °F 33.9 °F 23.0 °F 51% 29.46 in 10.0 mi NE 9.2 mph 19.6 mph N/A   Overcast
9:53 AM 42.1 °F 38.4 °F 21.0 °F 43% 29.45 in 10.0 mi ESE 5.8 mph - N/A   Overcast
10:53 AM 41.0 °F 33.1 °F 18.0 °F 40% 29.44 in 10.0 mi ENE 15.0 mph 23.0 mph N/A   Overcast
11:53 AM 43.0 °F 38.2 °F 21.0 °F 42% 29.44 in 10.0 mi East 8.1 mph - N/A   Overcast
12:53 PM 41.0 °F 34.3 °F 24.1 °F 51% 29.44 in 10.0 mi NE 11.5 mph 20.7 mph N/A   Overcast
1:53 PM 42.1 °F 37.1 °F 21.9 °F 45% 29.42 in 10.0 mi ENE 8.1 mph - N/A   Overcast
2:53 PM 36.0 °F 26.3 °F 24.1 °F 62% 29.44 in 6.0 mi NE 16.1 mph 31.1 mph 0.00 in Snow Light Snow
3:53 PM 39.0 °F 34.0 °F 27.0 °F 62% 29.41 in 10.0 mi Variable 6.9 mph - 0.00 in   Overcast
4:53 PM 39.9 °F 35.8 °F 28.9 °F 65% 29.41 in 10.0 mi East 5.8 mph - 0.00 in   Mostly Cloudy
5:53 PM 39.9 °F 33.9 °F 28.0 °F 63% 29.40 in 10.0 mi ENE 9.2 mph 20.7 mph N/A   Mostly Cloudy
6:53 PM 39.9 °F 32.1 °F 27.0 °F 60% 29.40 in 10.0 mi East 13.8 mph 19.6 mph N/A   Mostly Cloudy
7:53 PM 41.0 °F 33.5 °F 25.0 °F 53% 29.38 in 10.0 mi East 13.8 mph 25.3 mph N/A   Mostly Cloudy
8:53 PM 39.9 °F 34.5 °F 24.1 °F 53% 29.37 in 10.0 mi East 8.1 mph - N/A   Mostly Cloudy
9:53 PM 37.9 °F 32.1 °F 28.0 °F 68% 29.37 in 10.0 mi East 8.1 mph 20.7 mph 0.00 in Rain Light Rain
10:53 PM 37.0 °F 34.5 °F 25.0 °F 62% 29.34 in 10.0 mi ESE 3.5 mph - 0.00 in   Mostly Cloudy
11:53 PM 39.0 °F 32.8 °F 19.9 °F 46% 29.30 in 10.0 mi ENE 9.2 mph 17.3 mph N/A   Mostly Cloudy